Actual water levels and discharges of Morava river

Lanžhot

Date and time (UTC) H (cm) Q (m³/s)
20. 6. 2024 14:20 63 33.4
20. 6. 2024 14:00 63 33
20. 6. 2024 13:00 64 34
20. 6. 2024 12:00 64 34
20. 6. 2024 11:00 64 34
20. 6. 2024 10:00 63 33
20. 6. 2024 09:00 64 34
20. 6. 2024 08:00 63 33
20. 6. 2024 07:00 64 34
20. 6. 2024 06:00 64 34
20. 6. 2024 05:00 64 34
20. 6. 2024 04:00 64 34
20. 6. 2024 03:00 64 34
20. 6. 2024 02:00 63 33

H - water level, Q - discharge

Strážnice

Date and time (UTC) H (cm) Q (m³/s)
20. 6. 2024 14:20 138 29.7
20. 6. 2024 14:00 138 30
20. 6. 2024 13:00 138 30
20. 6. 2024 12:00 136 29
20. 6. 2024 11:00 134 28
20. 6. 2024 10:00 135 28
20. 6. 2024 09:00 134 28
20. 6. 2024 08:00 135 28
20. 6. 2024 07:00 135 28
20. 6. 2024 06:00 135 28
20. 6. 2024 05:00 138 30
20. 6. 2024 04:00 138 30
20. 6. 2024 03:00 138 30
20. 6. 2024 02:00 137 29

H - water level, Q - discharge
more information

Spytihněv

Date and time (UTC) H (cm) Q (m³/s)
20. 6. 2024 14:20 115 27.8
20. 6. 2024 14:00 118 29
20. 6. 2024 13:00 119 30
20. 6. 2024 12:00 114 27
20. 6. 2024 11:00 116 28
20. 6. 2024 10:00 127 35
20. 6. 2024 09:00 119 30
20. 6. 2024 08:00 123 32
20. 6. 2024 07:00 121 31
20. 6. 2024 06:00 120 31
20. 6. 2024 05:00 119 30
20. 6. 2024 04:00 120 31
20. 6. 2024 03:00 114 27
20. 6. 2024 02:00 116 28

H - water level, Q - discharge

Kroměříž

Date and time (UTC) H (cm) Q (m³/s)
20. 6. 2024 14:20 149 29.7
20. 6. 2024 14:00 149 30
20. 6. 2024 13:00 150 30
20. 6. 2024 12:00 151 31
20. 6. 2024 11:00 152 32
20. 6. 2024 10:00 153 32
20. 6. 2024 09:00 153 32
20. 6. 2024 08:00 155 34
20. 6. 2024 07:00 155 34
20. 6. 2024 06:00 155 34
20. 6. 2024 05:00 154 33
20. 6. 2024 04:00 153 32
20. 6. 2024 03:00 153 32
20. 6. 2024 02:00 152 32

H - water level, Q - discharge
more information

Olomouc-Nové Sady tok

Date and time (UTC) H (cm) Q (m³/s)
20. 6. 2024 14:20 107 14
20. 6. 2024 14:00 107 14
20. 6. 2024 13:00 107 14
20. 6. 2024 12:00 107 14
20. 6. 2024 11:00 106 14
20. 6. 2024 10:00 105 13
20. 6. 2024 09:00 103 13
20. 6. 2024 08:00 107 14
20. 6. 2024 07:00 107 14
20. 6. 2024 06:00 107 14
20. 6. 2024 05:00 107 14
20. 6. 2024 04:00 108 14
20. 6. 2024 03:00 108 14
20. 6. 2024 02:00 108 14

H - water level, Q - discharge

Moravičany

Date and time (UTC) H (cm) Q (m³/s)
20. 6. 2024 14:20 80 8.1
20. 6. 2024 14:00 80 8
20. 6. 2024 13:00 80 8
20. 6. 2024 12:00 80 8
20. 6. 2024 11:00 79 8
20. 6. 2024 10:00 78 7
20. 6. 2024 09:00 77 7
20. 6. 2024 08:00 78 7
20. 6. 2024 07:00 77 7
20. 6. 2024 06:00 78 7
20. 6. 2024 05:00 78 7
20. 6. 2024 04:00 78 7
20. 6. 2024 03:00 78 7
20. 6. 2024 02:00 79 8

H - water level, Q - discharge
Source data
Labe Basin Vltava Basin Povodí Moravy ČHMÚ
Po vodě ekologicky, levně a v pohodě
backgroung on backgroung off